Flag for U.S.A. Weather past 2 weeks in Raleigh, North Carolina, U.S.A.

44 °F

Passing clouds.

Feels Like: 44 °F
Forecast: 46 / 69 °F
Wind: No wind

Location: Raleigh-Durham International Airport

Current Time: Nov 27, 2015 at 7:26:34 AM

Latest Report: Nov 27, 2015 at 6:51 AM

Visibility: 9 mi

Pressure: 30.54 "Hg

Humidity: 96%

Dew point: 43 °F

Location of RaleighLocation

Historic Weather in Raleigh — Graph


Raleigh temperature yesterday

Maximum temperature yesterday: 70 °F (at 2:51 PM)
Minimum temperature yesterday: 41 °F (at 1:51 AM)
Average temperature yesterday: 53 °F

Past Weeks' High & Low Weather Summary

High76 °F (Nov 12, 1:51 PM)97% (Nov 18, 4:51 AM)30.75 "Hg (Nov 18, 4:51 AM)
Low28 °F (Nov 24, 4:51 AM)20% (Nov 13, 2:51 PM)29.73 "Hg (Nov 12, 2:51 PM)
Average51 °F65%30.25 "Hg
* Reported Nov 12 5:51 AM — Nov 27 5:51 AM, Raleigh, Weather by CustomWeather, © 2015

Note: Actual official high and low records may vary slightly from our data, if they occured in-between our weather recording intervals... More about our weather records


Raleigh weather history for previous 24 hours

Time TempWeatherWind HumidityBarometerVisibility
5:51 AM
Fri, Nov 27
44 °FClear.No wind96%30.54 "Hg10 mi
4:51 AM47 °FClear.No wind93%30.55 "Hg10 mi
3:51 AM47 °FClear.No wind93%30.55 "Hg10 mi
2:51 AM46 °FClear.No wind93%30.55 "Hg10 mi
1:51 AM47 °FClear.No wind93%30.56 "Hg10 mi
12:51 AM48 °FClear.No wind93%30.59 "Hg10 mi
11:51 PM
Thu, Nov 26
49 °FPassing clouds.No wind93%30.61 "Hg10 mi
10:51 PM54 °FPassing clouds.3 mph80%30.61 "Hg10 mi
9:51 PM57 °FPassing clouds.7 mph72%30.61 "Hg10 mi
8:51 PM55 °FPassing clouds.7 mph74%30.61 "Hg10 mi
7:51 PM55 °FPassing clouds.3 mph77%30.61 "Hg10 mi
6:51 PM54 °FPassing clouds.3 mph83%30.63 "Hg10 mi
5:51 PM58 °FPassing clouds.3 mph72%30.63 "Hg10 mi
4:51 PM62 °FScattered clouds.No wind65%30.63 "Hg10 mi
3:51 PM68 °FScattered clouds.9 mph49%30.63 "Hg10 mi
2:51 PM70 °FScattered clouds.6 mph49%30.63 "Hg10 mi
1:51 PM68 °FScattered clouds.6 mph55%30.65 "Hg10 mi
12:51 PM66 °FPassing clouds.3 mph56%30.68 "Hg10 mi
11:51 AM62 °FScattered clouds.No wind60%30.71 "Hg10 mi
10:51 AM58 °FScattered clouds.5 mph67%30.73 "Hg10 mi
9:51 AM55 °FScattered clouds.6 mph69%30.75 "Hg10 mi
8:51 AM49 °FPartly sunny.6 mph77%30.74 "Hg10 mi
7:51 AM45 °FPartly sunny.6 mph86%30.71 "Hg10 mi
Weather by CustomWeather, © 2015

See weather overviewHow to use our weather pages